QPF
0.05 0.05 0.04 0.04 0.02 0.01 0.02 0.03 0.02 0.04 0.03 0.02 0.02 0.02 0.04 0.03 0.03 0.05 0.04 0.03 0.03 0.03 0.04 0.04 0.04 0.03 0.03 0.03 0.03 0.03 0.02 0.02 0.02 0.02 0.02 0.02 0.02 0.01 0.01 0.00 0.01 0.01 0.01
0.06 0.05 0.04 0.05 0.03 0.03 0.04 0.05 0.04 0.06 0.05 0.05 0.04 0.03 0.03 0.03 0.04 0.04 0.05 0.05 0.05 0.03 0.03 0.04 0.04 0.04 0.05 0.04 0.04 0.03 0.02 0.02 0.02 0.02 0.02 0.02 0.03 0.02 0.02 0.01 0.01 0.01 0.01
0.06 0.05 0.05 0.05 0.04 0.04 0.06 0.07 0.07 0.07 0.05 0.05 0.06 0.04 0.03 0.02 0.03 0.04 0.04 0.04 0.05 0.03 0.03 0.04 0.05 0.06 0.06 0.05 0.04 0.02 0.02 0.02 0.02 0.02 0.02 0.02 0.02 0.03 0.03 0.02 0.03 0.03 0.02
0.05 0.06 0.06 0.05 0.04 0.05 0.06 0.09 0.09 0.09 0.09 0.07 0.08 0.07 0.04 0.04 0.03 0.03 0.02 0.02 0.03 0.03 0.04 0.04 0.05 0.07 0.06 0.05 0.04 0.04 0.03 0.03 0.02 0.02 0.02 0.02 0.02 0.03 0.02 0.02 0.03 0.04 0.05
0.05 0.07 0.09 0.09 0.07 0.07 0.09 0.08 0.10 0.13 0.13 0.11 0.08 0.08 0.06 0.05 0.04 0.02 0.02 0.01 0.01 0.02 0.05 0.04 0.05 0.07 0.07 0.08 0.06 0.05 0.05 0.05 0.04 0.03 0.03 0.02 0.02 0.02 0.02 0.02 0.02 0.02 0.02
0.06 0.08 0.09 0.09 0.08 0.09 0.10 0.10 0.11 0.11 0.10 0.08 0.05 0.05 0.06 0.04 0.04 0.03 0.02 0.01 0.01 0.01 0.02 0.04 0.06 0.06 0.06 0.08 0.09 0.07 0.06 0.07 0.05 0.04 0.03 0.03 0.03 0.03 0.02 0.01 0.01 0.01 0.01
0.07 0.08 0.06 0.11 0.10 0.09 0.10 0.09 0.08 0.09 0.08 0.06 0.06 0.05 0.03 0.03 0.04 0.04 0.03 0.03 0.02 0.01 0.02 0.04 0.05 0.06 0.06 0.05 0.06 0.09 0.09 0.08 0.07 0.05 0.04 0.04 0.04 0.03 0.03 0.02 0.02 0.01 0.01
0.06 0.06 0.07 0.09 0.09 0.09 0.09 0.09 0.10 0.09 0.08 0.08 0.09 0.07 0.05 0.04 0.03 0.03 0.05 0.03 0.03 0.02 0.01 0.01 0.03 0.06 0.07 0.08 0.07 0.05 0.09 0.11 0.11 0.09 0.07 0.07 0.07 0.07 0.06 0.05 0.04 0.03 0.02
0.05 0.05 0.06 0.07 0.08 0.07 0.07 0.10 0.11 0.11 0.11 0.10 0.10 0.11 0.09 0.06 0.04 0.02 0.03 0.03 0.03 0.03 0.03 0.03 0.03 0.04 0.04 0.05 0.06 0.05 0.06 0.08 0.11 0.13 0.14 0.14 0.13 0.12 0.10 0.08 0.07 0.06 0.05
0.05 0.05 0.05 0.07 0.07 0.05 0.07 0.08 0.08 0.10 0.12 0.12 0.10 0.09 0.10 0.08 0.06 0.04 0.03 0.03 0.04 0.05 0.05 0.04 0.03 0.02 0.02 0.03 0.05 0.04 0.05 0.05 0.07 0.10 0.12 0.13 0.14 0.13 0.11 0.10 0.09 0.08 0.07
0.04 0.05 0.06 0.07 0.08 0.06 0.07 0.08 0.08 0.08 0.08 0.11 0.10 0.08 0.07 0.08 0.08 0.07 0.06 0.06 0.05 0.05 0.04 0.04 0.04 0.03 0.03 0.04 0.04 0.03 0.03 0.05 0.07 0.06 0.07 0.09 0.12 0.14 0.14 0.14 0.14 0.12 0.10
0.05 0.05 0.05 0.06 0.07 0.06 0.06 0.07 0.07 0.07 0.08 0.08 0.08 0.09 0.08 0.07 0.08 0.10 0.08 0.06 0.06 0.05 0.05 0.05 0.06 0.05 0.05 0.05 0.05 0.04 0.03 0.04 0.04 0.04 0.05 0.05 0.07 0.08 0.10 0.11 0.13 0.14 0.14
0.05 0.05 0.04 0.04 0.05 0.06 0.05 0.06 0.07 0.08 0.08 0.09 0.09 0.11 0.13 0.11 0.10 0.10 0.09 0.07 0.07 0.06 0.06 0.07 0.06 0.05 0.06 0.06 0.06 0.05 0.03 0.03 0.04 0.03 0.04 0.05 0.07 0.07 0.07 0.09 0.12 0.16 0.18
0.04 0.03 0.03 0.04 0.04 0.04 0.04 0.06 0.06 0.07 0.08 0.09 0.07 0.09 0.11 0.08 0.07 0.07 0.08 0.10 0.10 0.09 0.08 0.08 0.06 0.05 0.05 0.06 0.06 0.04 0.03 0.04 0.04 0.03 0.03 0.03 0.04 0.05 0.05 0.06 0.09 0.12 0.17
0.03 0.02 0.02 0.04 0.03 0.04 0.05 0.06 0.05 0.06 0.07 0.09 0.08 0.08 0.07 0.06 0.04 0.04 0.06 0.08 0.09 0.09 0.08 0.07 0.06 0.05 0.06 0.06 0.06 0.05 0.04 0.05 0.04 0.04 0.04 0.04 0.05 0.06 0.06 0.06 0.07 0.09 0.10
0.03 0.02 0.01 0.02 0.02 0.02 0.03 0.05 0.05 0.06 0.08 0.09 0.10 0.11 0.10 0.08 0.06 0.06 0.05 0.06 0.08 0.09 0.07 0.06 0.06 0.07 0.07 0.05 0.06 0.04 0.04 0.05 0.04 0.03 0.04 0.04 0.04 0.04 0.04 0.05 0.05 0.07 0.08
0.02 0.01 0.01 0.01 0.01 0.01 0.04 0.05 0.05 0.06 0.09 0.10 0.10 0.12 0.12 0.11 0.10 0.08 0.07 0.07 0.08 0.08 0.07 0.05 0.06 0.06 0.06 0.07 0.07 0.06 0.06 0.05 0.04 0.03 0.03 0.03 0.03 0.03 0.03 0.03 0.04 0.05 0.06
0.01 0.02 0.02 0.01 0.01 0.01 0.03 0.05 0.05 0.04 0.07 0.09 0.08 0.10 0.09 0.09 0.08 0.08 0.09 0.09 0.09 0.10 0.09 0.09 0.11 0.11 0.07 0.06 0.06 0.05 0.03 0.03 0.03 0.04 0.04 0.04 0.05 0.05 0.05 0.06 0.07 0.07 0.07
0.01 0.02 0.02 0.02 0.02 0.01 0.01 0.02 0.03 0.03 0.05 0.06 0.06 0.07 0.07 0.08 0.07 0.08 0.09 0.10 0.09 0.09 0.09 0.09 0.11 0.11 0.08 0.07 0.06 0.05 0.04 0.04 0.03 0.03 0.04 0.04 0.04 0.05 0.06 0.07 0.07 0.06 0.05
0.02 0.03 0.04 0.03 0.02 0.02 0.02 0.01 0.01 0.03 0.04 0.04 0.04 0.05 0.06 0.06 0.06 0.07 0.09 0.09 0.09 0.09 0.09 0.09 0.10 0.10 0.09 0.07 0.06 0.05 0.06 0.05 0.05 0.05 0.05 0.04 0.03 0.03 0.03 0.03 0.02 0.02 0.02
0.01 0.02 0.02 0.02 0.02 0.02 0.02 0.02 0.03 0.03 0.03 0.02 0.03 0.04 0.05 0.07 0.07 0.06 0.08 0.09 0.09 0.09 0.08 0.08 0.07 0.06 0.06 0.06 0.06 0.06 0.07 0.07 0.07 0.05 0.04 0.03 0.02 0.01 0.01 0.01 0.01 0.01 0.02
0.02 0.02 0.03 0.03 0.03 0.02 0.02 0.02 0.03 0.03 0.03 0.02 0.02 0.03 0.05 0.06 0.07 0.08 0.08 0.09 0.08 0.07 0.07 0.07 0.06 0.06 0.05 0.05 0.04 0.05 0.06 0.06 0.05 0.04 0.03 0.03 0.02 0.01 0.01 0.01 0.01 0.01 0.01
0.02 0.03 0.03 0.03 0.03 0.02 0.02 0.02 0.04 0.03 0.04 0.04 0.04 0.04 0.04 0.05 0.08 0.11 0.12 0.10 0.08 0.05 0.05 0.05 0.06 0.06 0.06 0.06 0.06 0.06 0.06 0.05 0.05 0.03 0.02 0.02 0.01 0.01 0.02 0.02 0.02 0.02 0.02
0.02 0.03 0.03 0.04 0.03 0.03 0.03 0.04 0.04 0.04 0.04 0.04 0.05 0.08 0.10 0.11 0.12 0.11 0.07 0.06 0.05 0.04 0.05 0.05 0.05 0.05 0.06 0.06 0.05 0.05 0.05 0.04 0.03 0.01 0.01 0.02 0.02 0.03 0.03 0.03 0.03 0.03 0.04
0.03 0.03 0.04 0.05 0.06 0.05 0.03 0.04 0.04 0.03 0.04 0.03 0.03 0.05 0.07 0.08 0.09 0.07 0.05 0.04 0.03 0.03 0.04 0.05 0.05 0.05 0.04 0.04 0.03 0.03 0.04 0.03 0.03 0.01 0.01 0.01 0.02 0.04 0.04 0.04 0.03 0.03 0.03
0.04 0.05 0.06 0.06 0.06 0.05 0.04 0.04 0.04 0.03 0.03 0.02 0.02 0.02 0.03 0.04 0.06 0.05 0.05 0.04 0.03 0.04 0.04 0.04 0.04 0.04 0.03 0.03 0.04 0.03 0.03 0.03 0.03 0.02 0.01 0.01 0.02 0.03 0.04 0.04 0.03 0.03 0.03
MSLP
1017.91 1018.01 1018.03 1017.98 1017.92 1017.88 1017.86 1017.88 1017.90 1017.89 1017.83 1017.70 1017.51 1017.28 1017.08 1016.96 1016.97 1017.13 1017.45 1017.88 1018.37 1018.85 1019.26 1019.57 1019.77 1019.87 1019.90 1019.91 1019.94 1020.00 1020.12 1020.29 1020.47 1020.66 1020.83 1020.98 1021.11 1021.23 1021.34 1021.47 1021.60 1021.73 1021.87
1017.89 1017.98 1017.98 1017.93 1017.87 1017.83 1017.82 1017.84 1017.88 1017.90 1017.86 1017.75 1017.57 1017.35 1017.13 1016.95 1016.88 1016.95 1017.16 1017.49 1017.90 1018.33 1018.73 1019.06 1019.31 1019.48 1019.59 1019.68 1019.77 1019.88 1020.02 1020.18 1020.36 1020.54 1020.69 1020.83 1020.95 1021.06 1021.18 1021.29 1021.42 1021.55 1021.68
1017.84 1017.90 1017.90 1017.85 1017.79 1017.76 1017.76 1017.81 1017.87 1017.91 1017.91 1017.83 1017.67 1017.45 1017.20 1016.97 1016.82 1016.77 1016.86 1017.06 1017.36 1017.71 1018.07 1018.41 1018.70 1018.94 1019.14 1019.31 1019.48 1019.65 1019.82 1020.00 1020.18 1020.34 1020.48 1020.60 1020.70 1020.80 1020.90 1021.01 1021.13 1021.26 1021.38
1017.74 1017.77 1017.76 1017.71 1017.67 1017.65 1017.68 1017.74 1017.83 1017.90 1017.92 1017.87 1017.73 1017.51 1017.25 1016.97 1016.74 1016.59 1016.55 1016.62 1016.79 1017.04 1017.34 1017.65 1017.97 1018.26 1018.54 1018.80 1019.04 1019.27 1019.49 1019.68 1019.86 1020.01 1020.13 1020.23 1020.33 1020.41 1020.51 1020.62 1020.73 1020.86 1020.98
1017.57 1017.58 1017.56 1017.53 1017.50 1017.51 1017.55 1017.63 1017.73 1017.82 1017.86 1017.83 1017.71 1017.51 1017.24 1016.94 1016.64 1016.40 1016.24 1016.19 1016.23 1016.37 1016.58 1016.85 1017.16 1017.48 1017.80 1018.12 1018.42 1018.70 1018.96 1019.18 1019.36 1019.50 1019.62 1019.71 1019.79 1019.88 1019.98 1020.10 1020.22 1020.35 1020.48
1017.37 1017.35 1017.33 1017.31 1017.31 1017.33 1017.39 1017.47 1017.57 1017.66 1017.71 1017.69 1017.60 1017.41 1017.15 1016.85 1016.52 1016.22 1015.98 1015.81 1015.73 1015.75 1015.86 1016.06 1016.32 1016.62 1016.96 1017.30 1017.63 1017.95 1018.22 1018.46 1018.65 1018.79 1018.91 1019.01 1019.10 1019.21 1019.33 1019.46 1019.61 1019.76 1019.91
1017.16 1017.14 1017.12 1017.11 1017.13 1017.16 1017.21 1017.29 1017.37 1017.44 1017.48 1017.47 1017.39 1017.23 1017.01 1016.72 1016.40 1016.08 1015.77 1015.51 1015.33 1015.24 1015.23 1015.33 1015.51 1015.76 1016.06 1016.38 1016.72 1017.03 1017.32 1017.56 1017.75 1017.90 1018.03 1018.14 1018.26 1018.40 1018.55 1018.72 1018.91 1019.09 1019.26
1017.01 1016.98 1016.97 1016.98 1017.00 1017.03 1017.07 1017.11 1017.15 1017.19 1017.21 1017.19 1017.13 1017.02 1016.84 1016.60 1016.31 1015.99 1015.66 1015.34 1015.07 1014.86 1014.74 1014.71 1014.79 1014.95 1015.18 1015.46 1015.76 1016.05 1016.32 1016.55 1016.74 1016.90 1017.04 1017.18 1017.33 1017.50 1017.69 1017.90 1018.12 1018.34 1018.54
1016.97 1016.94 1016.94 1016.96 1016.97 1016.99 1017.00 1017.00 1016.99 1016.98 1016.96 1016.94 1016.89 1016.82 1016.70 1016.52 1016.28 1015.99 1015.66 1015.30 1014.96 1014.66 1014.42 1014.27 1014.23 1014.29 1014.42 1014.63 1014.86 1015.11 1015.35 1015.56 1015.74 1015.90 1016.05 1016.21 1016.38 1016.57 1016.79 1017.03 1017.27 1017.50 1017.72
1017.07 1017.04 1017.05 1017.06 1017.07 1017.06 1017.03 1016.98 1016.91 1016.85 1016.80 1016.76 1016.73 1016.69 1016.63 1016.52 1016.34 1016.09 1015.77 1015.40 1015.01 1014.62 1014.29 1014.04 1013.88 1013.83 1013.88 1014.00 1014.17 1014.36 1014.55 1014.73 1014.89 1015.04 1015.18 1015.34 1015.51 1015.71 1015.93 1016.16 1016.39 1016.60 1016.80
1017.29 1017.27 1017.29 1017.30 1017.29 1017.25 1017.17 1017.07 1016.95 1016.83 1016.75 1016.70 1016.68 1016.68 1016.66 1016.61 1016.49 1016.28 1015.98 1015.61 1015.18 1014.75 1014.35 1014.01 1013.78 1013.64 1013.61 1013.67 1013.78 1013.92 1014.07 1014.21 1014.34 1014.45 1014.57 1014.69 1014.84 1015.00 1015.18 1015.36 1015.53 1015.68 1015.81
1017.62 1017.61 1017.62 1017.63 1017.61 1017.53 1017.42 1017.26 1017.10 1016.94 1016.83 1016.76 1016.75 1016.77 1016.79 1016.78 1016.71 1016.53 1016.25 1015.89 1015.45 1015.00 1014.56 1014.19 1013.91 1013.74 1013.67 1013.69 1013.76 1013.87 1013.98 1014.08 1014.17 1014.23 1014.30 1014.37 1014.44 1014.53 1014.63 1014.71 1014.78 1014.82 1014.83
1018.01 1018.01 1018.02 1018.02 1017.98 1017.88 1017.73 1017.54 1017.34 1017.16 1017.02 1016.95 1016.93 1016.97 1017.01 1017.02 1016.96 1016.81 1016.55 1016.19 1015.77 1015.32 1014.89 1014.53 1014.26 1014.11 1014.05 1014.07 1014.14 1014.24 1014.33 1014.39 1014.42 1014.43 1014.42 1014.40 1014.39 1014.37 1014.35 1014.30 1014.23 1014.12 1013.97
1018.41 1018.42 1018.44 1018.43 1018.37 1018.26 1018.09 1017.89 1017.67 1017.47 1017.32 1017.23 1017.21 1017.23 1017.27 1017.28 1017.22 1017.07 1016.82 1016.48 1016.09 1015.68 1015.31 1015.00 1014.80 1014.70 1014.70 1014.77 1014.87 1014.98 1015.06 1015.09 1015.07 1015.01 1014.92 1014.81 1014.69 1014.55 1014.40 1014.21 1013.98 1013.70 1013.39
1018.79 1018.82 1018.84 1018.83 1018.77 1018.66 1018.49 1018.28 1018.06 1017.85 1017.70 1017.60 1017.56 1017.56 1017.56 1017.55 1017.47 1017.31 1017.06 1016.75 1016.40 1016.06 1015.76 1015.56 1015.46 1015.46 1015.55 1015.70 1015.86 1016.00 1016.08 1016.09 1016.03 1015.91 1015.74 1015.54 1015.32 1015.07 1014.80 1014.48 1014.11 1013.68 1013.21
1019.14 1019.19 1019.23 1019.23 1019.18 1019.07 1018.91 1018.72 1018.50 1018.30 1018.14 1018.03 1017.96 1017.92 1017.89 1017.83 1017.71 1017.53 1017.29 1017.00 1016.70 1016.44 1016.25 1016.16 1016.18 1016.31 1016.52 1016.75 1016.98 1017.15 1017.25 1017.24 1017.15 1016.97 1016.74 1016.48 1016.18 1015.86 1015.51 1015.11 1014.65 1014.12 1013.54
1019.46 1019.55 1019.61 1019.63 1019.61 1019.52 1019.39 1019.21 1019.01 1018.82 1018.66 1018.52 1018.42 1018.34 1018.26 1018.14 1017.99 1017.78 1017.53 1017.27 1017.02 1016.84 1016.76 1016.79 1016.93 1017.18 1017.48 1017.80 1018.09 1018.29 1018.40 1018.38 1018.26 1018.06 1017.79 1017.49 1017.17 1016.83 1016.46 1016.05 1015.57 1015.02 1014.40
1019.77 1019.90 1020.00 1020.06 1020.06 1020.01 1019.91 1019.76 1019.59 1019.41 1019.24 1019.09 1018.96 1018.83 1018.70 1018.53 1018.33 1018.09 1017.84 1017.60 1017.41 1017.29 1017.29 1017.42 1017.66 1018.00 1018.38 1018.75 1019.07 1019.29 1019.39 1019.37 1019.23 1019.02 1018.75 1018.46 1018.16 1017.86 1017.54 1017.18 1016.76 1016.27 1015.70
1020.09 1020.26 1020.40 1020.50 1020.55 1020.55 1020.48 1020.37 1020.22 1020.06 1019.89 1019.73 1019.57 1019.40 1019.22 1019.02 1018.78 1018.53 1018.27 1018.04 1017.88 1017.82 1017.88 1018.06 1018.36 1018.74 1019.14 1019.53 1019.84 1020.05 1020.14 1020.10 1019.96 1019.74 1019.50 1019.26 1019.03 1018.82 1018.60 1018.37 1018.07 1017.71 1017.26
1020.40 1020.62 1020.81 1020.97 1021.06 1021.10 1021.08 1021.00 1020.89 1020.74 1020.58 1020.42 1020.24 1020.06 1019.85 1019.62 1019.36 1019.10 1018.84 1018.63 1018.48 1018.44 1018.52 1018.72 1019.02 1019.38 1019.76 1020.12 1020.39 1020.56 1020.60 1020.54 1020.40 1020.20 1020.01 1019.83 1019.70 1019.61 1019.54 1019.46 1019.34 1019.14 1018.86
1020.72 1020.98 1021.22 1021.42 1021.56 1021.65 1021.67 1021.63 1021.54 1021.42 1021.28 1021.13 1020.95 1020.77 1020.56 1020.33 1020.07 1019.81 1019.56 1019.35 1019.20 1019.16 1019.22 1019.38 1019.63 1019.94 1020.25 1020.53 1020.72 1020.83 1020.83 1020.73 1020.58 1020.42 1020.27 1020.18 1020.15 1020.19 1020.27 1020.36 1020.41 1020.40 1020.29
1021.00 1021.30 1021.58 1021.82 1022.01 1022.14 1022.20 1022.20 1022.15 1022.06 1021.94 1021.81 1021.66 1021.50 1021.31 1021.10 1020.86 1020.62 1020.38 1020.17 1020.02 1019.94 1019.95 1020.05 1020.22 1020.42 1020.63 1020.80 1020.91 1020.93 1020.87 1020.75 1020.60 1020.45 1020.36 1020.33 1020.40 1020.55 1020.76 1020.99 1021.20 1021.34 1021.40
1021.24 1021.57 1021.88 1022.16 1022.38 1022.54 1022.63 1022.67 1022.65 1022.60 1022.52 1022.43 1022.32 1022.20 1022.06 1021.88 1021.69 1021.47 1021.25 1021.04 1020.87 1020.75 1020.70 1020.71 1020.77 1020.87 1020.96 1021.02 1021.02 1020.97 1020.85 1020.70 1020.55 1020.42 1020.36 1020.39 1020.52 1020.74 1021.03 1021.35 1021.66 1021.92 1022.09
1021.42 1021.77 1022.10 1022.39 1022.64 1022.82 1022.95 1023.01 1023.03 1023.02 1022.99 1022.94 1022.89 1022.82 1022.74 1022.62 1022.47 1022.29 1022.10 1021.89 1021.70 1021.54 1021.42 1021.34 1021.30 1021.28 1021.26 1021.22 1021.14 1021.02 1020.87 1020.70 1020.54 1020.42 1020.38 1020.44 1020.59 1020.84 1021.16 1021.51 1021.85 1022.15 1022.38
1021.56 1021.91 1022.24 1022.55 1022.81 1023.00 1023.15 1023.24 1023.29 1023.31 1023.33 1023.34 1023.34 1023.33 1023.31 1023.25 1023.15 1023.02 1022.85 1022.65 1022.45 1022.25 1022.07 1021.92 1021.79 1021.68 1021.57 1021.45 1021.32 1021.16 1020.98 1020.81 1020.65 1020.54 1020.51 1020.56 1020.70 1020.93 1021.22 1021.54 1021.86 1022.14 1022.36
1021.65 1022.00 1022.34 1022.65 1022.91 1023.11 1023.26 1023.37 1023.44 1023.50 1023.55 1023.61 1023.66 1023.71 1023.74 1023.74 1023.69 1023.60 1023.45 1023.27 1023.06 1022.84 1022.62 1022.41 1022.23 1022.06 1021.90 1021.74 1021.58 1021.41 1021.23 1021.06 1020.92 1020.82 1020.77 1020.80 1020.91 1021.08 1021.30 1021.55 1021.79 1022.01 1022.19
Thickness
5753 5752 5751 5750 5753 5752 5752 5751 5752 5751 5751 5751 5752 5752 5752 5751 5750 5749 5746 5741 5738 5736 5735 5733 5732 5730 5729 5727 5726 5725 5724 5722 5721 5720 5719 5718 5716 5715 5714 5713 5712 5711 5710
5753 5752 5751 5751 5753 5753 5753 5752 5753 5752 5752 5752 5753 5752 5752 5752 5749 5748 5748 5743 5740 5738 5736 5735 5733 5731 5730 5728 5727 5726 5724 5723 5722 5720 5719 5718 5717 5716 5715 5714 5713 5712 5710
5752 5752 5753 5752 5753 5752 5751 5751 5752 5753 5753 5753 5753 5753 5753 5752 5751 5749 5748 5746 5744 5740 5738 5736 5735 5733 5731 5730 5728 5727 5725 5724 5723 5721 5720 5719 5718 5717 5715 5714 5713 5712 5711
5753 5753 5754 5754 5753 5753 5753 5753 5753 5753 5753 5754 5753 5754 5754 5752 5751 5750 5750 5748 5747 5746 5741 5739 5737 5735 5733 5732 5730 5729 5727 5725 5724 5722 5721 5719 5718 5717 5716 5714 5713 5712 5711
5754 5754 5754 5753 5752 5754 5754 5755 5755 5753 5752 5752 5754 5754 5755 5755 5754 5753 5752 5751 5749 5747 5745 5741 5739 5737 5735 5733 5732 5730 5728 5727 5725 5723 5721 5720 5718 5717 5715 5714 5713 5712 5710
5756 5755 5755 5753 5754 5754 5754 5754 5752 5752 5752 5752 5755 5755 5755 5756 5756 5755 5754 5753 5751 5749 5748 5745 5742 5740 5737 5735 5733 5731 5730 5728 5726 5724 5722 5720 5719 5717 5716 5714 5713 5711 5710
5757 5755 5757 5755 5754 5755 5754 5755 5754 5753 5753 5754 5752 5751 5755 5757 5756 5755 5754 5753 5752 5750 5748 5746 5744 5743 5740 5736 5734 5732 5731 5729 5727 5725 5723 5721 5719 5718 5716 5714 5712 5711 5709
5758 5758 5756 5756 5756 5755 5754 5754 5753 5753 5753 5754 5750 5747 5746 5750 5753 5756 5754 5752 5751 5750 5749 5747 5744 5742 5740 5739 5736 5733 5731 5729 5727 5725 5723 5721 5719 5717 5716 5714 5712 5711 5709
5759 5758 5757 5756 5756 5756 5756 5754 5753 5751 5750 5752 5752 5748 5743 5743 5747 5752 5751 5751 5749 5748 5748 5747 5744 5742 5740 5737 5735 5733 5730 5729 5726 5725 5723 5721 5718 5717 5715 5713 5712 5710 5709
5758 5758 5757 5756 5756 5757 5756 5755 5756 5753 5750 5749 5751 5750 5750 5749 5741 5741 5745 5748 5747 5745 5744 5744 5744 5742 5739 5737 5734 5731 5729 5727 5725 5723 5721 5719 5717 5716 5714 5712 5711 5710 5708
5758 5757 5757 5756 5756 5756 5755 5754 5753 5752 5751 5749 5748 5748 5747 5746 5744 5738 5735 5739 5741 5742 5742 5740 5740 5739 5737 5734 5732 5729 5727 5724 5722 5720 5718 5716 5715 5713 5712 5711 5710 5708 5707
5758 5757 5756 5755 5755 5755 5754 5753 5752 5751 5749 5748 5747 5746 5744 5742 5740 5737 5733 5733 5733 5736 5737 5736 5735 5734 5732 5730 5728 5725 5722 5720 5718 5716 5714 5713 5712 5710 5709 5708 5707 5706 5705
5757 5755 5755 5753 5753 5752 5752 5751 5749 5748 5747 5745 5744 5743 5743 5741 5741 5738 5733 5732 5731 5733 5732 5731 5731 5730 5728 5725 5723 5719 5717 5714 5713 5711 5710 5708 5707 5706 5705 5704 5703 5702 5701
5755 5753 5752 5750 5750 5749 5749 5748 5748 5746 5745 5743 5742 5740 5739 5739 5739 5738 5734 5730 5727 5727 5727 5725 5726 5725 5722 5719 5716 5713 5711 5708 5706 5705 5704 5702 5701 5700 5699 5698 5697 5696 5694
5752 5750 5749 5748 5747 5746 5745 5745 5744 5743 5742 5740 5739 5738 5737 5737 5737 5736 5735 5732 5726 5721 5719 5720 5719 5718 5716 5712 5709 5707 5704 5701 5699 5697 5696 5695 5694 5692 5691 5690 5689 5688 5687
5747 5747 5746 5745 5744 5743 5743 5742 5741 5739 5738 5737 5736 5734 5734 5735 5734 5732 5731 5730 5728 5723 5717 5716 5714 5711 5708 5706 5701 5699 5696 5694 5691 5689 5687 5686 5685 5683 5682 5680 5680 5679 5678
5743 5743 5742 5742 5741 5740 5739 5738 5737 5736 5735 5733 5732 5731 5730 5729 5729 5728 5727 5725 5723 5720 5713 5710 5708 5704 5700 5697 5694 5692 5690 5687 5683 5680 5678 5676 5674 5673 5671 5670 5669 5667 5666
5741 5739 5739 5738 5738 5737 5735 5734 5733 5732 5731 5729 5728 5727 5726 5725 5724 5723 5721 5720 5717 5715 5710 5703 5700 5697 5693 5690 5688 5686 5684 5681 5677 5672 5669 5667 5665 5663 5661 5659 5657 5656 5655
5737 5736 5735 5734 5734 5733 5731 5730 5729 5728 5727 5725 5724 5722 5721 5720 5718 5717 5715 5714 5712 5710 5706 5700 5695 5690 5687 5684 5681 5678 5676 5672 5671 5665 5661 5658 5655 5653 5651 5649 5646 5644 5643
5734 5732 5731 5730 5729 5728 5727 5725 5724 5723 5721 5720 5719 5717 5716 5714 5712 5711 5709 5707 5706 5703 5699 5695 5690 5685 5681 5677 5674 5671 5667 5665 5663 5659 5655 5652 5647 5644 5641 5639 5636 5634 5632
5732 5729 5728 5726 5725 5723 5721 5720 5719 5718 5716 5714 5712 5710 5708 5705 5702 5702 5702 5700 5699 5696 5693 5688 5683 5678 5674 5669 5666 5664 5661 5658 5654 5651 5649 5646 5641 5638 5634 5629 5626 5623 5621
5727 5725 5723 5721 5719 5716 5712 5711 5712 5712 5710 5708 5706 5704 5702 5699 5695 5692 5690 5688 5687 5687 5684 5681 5676 5671 5666 5663 5659 5658 5654 5651 5646 5643 5640 5637 5634 5630 5625 5621 5615 5613 5610
5721 5719 5717 5715 5711 5707 5704 5704 5705 5706 5704 5701 5698 5697 5696 5692 5690 5688 5684 5681 5678 5675 5673 5672 5667 5663 5659 5655 5652 5650 5644 5641 5636 5634 5631 5627 5624 5620 5616 5610 5605 5602 5599
5716 5714 5711 5708 5705 5700 5698 5697 5698 5698 5696 5693 5690 5688 5686 5682 5680 5678 5677 5674 5670 5666 5664 5661 5657 5653 5649 5646 5643 5641 5637 5633 5629 5625 5621 5618 5615 5611 5607 5601 5595 5591 5588
5710 5708 5705 5702 5698 5693 5690 5690 5690 5691 5688 5684 5681 5678 5676 5673 5667 5668 5668 5665 5661 5656 5651 5647 5644 5640 5637 5635 5634 5634 5631 5629 5623 5619 5613 5610 5607 5603 5599 5594 5587 5582 5578
5705 5703 5698 5695 5692 5688 5683 5682 5682 5685 5680 5677 5672 5668 5662 5660 5657 5657 5658 5655 5651 5647 5644 5641 5636 5632 5630 5627 5624 5622 5622 5620 5615 5611 5605 5600 5598 5594 5589 5585 5580 5575 5570